{"data":{"norad_id":67461,"intl_designator":"2026-008S","name":"STARLINK-36522","alt_names":[],"object_type":"PAYLOAD","status":"ACTIVE","operator":null,"country":"US","launch_date":"2026-01-14","launch_site_code":"AFETR","launch_vehicle":null,"mission":null,"orbit_class":"UNKNOWN","rcs_meters":null,"size_class":null,"mass_kg":null,"dimensions":null,"purposes":["comms"],"wikipedia_slug":null,"has_3d_model":false,"image_url":null,"decayed_at":null,"tle_current":{"epoch":"2026-05-24T22:33:33.888384Z","epoch_age_seconds":76145,"freshness":"FRESH","line1":"1 67461U 26008S   26144.93997556  .00014672  00000+0  54135-3 0  9990","line2":"2 67461  43.0022 134.6106 0002029 284.2432  75.8194 15.27597680 21238","mean_motion":15.2759768,"eccentricity":0.0002029,"inclination_deg":43.0022,"raan_deg":134.6106,"arg_perigee_deg":284.2432,"mean_anomaly_deg":75.8194,"bstar":0.00054135,"rev_number":2123,"period_min":94.265657695945,"perigee_km":481.6040323525,"apogee_km":484.38828018731,"semimajor_km":6861.1331562699,"source":"CELESTRAK","updated_at":"2026-05-25T13:38:21.562799Z"}}}